Time,TemperatureF,DewpointF,PressureIn,WindDirection,WindDirectionDegrees,WindSpeedMPH,WindSpeedGustMPH,Humidity,HourlyPrecipIn,Conditions,Clouds,dailyrainin,SoftwareType,DateUTC
2013-12-13 00:02:00,33.0,27.2,30.25,SSW,193,2.0,4.0,79,0.00,,,0.00,WeatherCatV1.22B15,2013-12-13 06:02:00,
2013-12-13 00:07:00,33.0,27.2,30.25,North,0,2.0,2.0,79,0.00,,,0.00,WeatherCatV1.22B15,2013-12-13 06:07:00,
2013-12-13 00:12:00,33.3,27.5,30.25,North,0,2.0,4.0,79,0.00,,,0.00,WeatherCatV1.22B15,2013-12-13 06:12:00,
2013-12-13 00:17:00,33.4,27.6,30.25,South,180,2.0,6.0,79,0.00,,,0.00,WeatherCatV1.22B15,2013-12-13 06:17:00,
2013-12-13 00:22:00,33.5,27.4,30.25,North,0,2.0,4.0,78,0.00,,,0.00,WeatherCatV1.22B15,2013-12-13 06:22:00,
2013-12-13 00:27:00,33.6,27.5,30.25,North,0,0.0,4.0,78,0.00,,,0.00,WeatherCatV1.22B15,2013-12-13 06:27:00,
2013-12-13 00:32:00,33.8,27.7,30.24,North,0,0.0,6.0,78,0.00,,,0.00,WeatherCatV1.22B15,2013-12-13 06:32:00,
2013-12-13 00:37:00,33.9,27.8,30.24,North,0,6.0,10.0,78,0.00,,,0.00,WeatherCatV1.22B15,2013-12-13 06:37:00,
2013-12-13 00:42:00,34.1,28.0,30.23,South,180,0.0,8.0,78,0.00,,,0.00,WeatherCatV1.22B15,2013-12-13 06:42:00,
2013-12-13 00:47:00,34.1,28.0,30.24,North,0,0.0,4.0,78,0.00,,,0.00,WeatherCatV1.22B15,2013-12-13 06:47:00,
2013-12-13 00:52:00,34.2,28.1,30.23,North,0,2.0,12.0,78,0.00,,,0.00,WeatherCatV1.22B15,2013-12-13 06:52:00,
2013-12-13 00:57:00,34.3,28.2,30.23,North,0,4.0,6.0,78,0.00,,,0.00,WeatherCatV1.22B15,2013-12-13 06:57:00,
2013-12-13 01:02:00,34.4,28.0,30.23,South,191,0.0,4.0,77,0.00,,,0.00,WeatherCatV1.22B15,2013-12-13 07:02:00,
2013-12-13 01:07:00,34.4,28.0,30.23,North,0,0.0,6.0,77,0.00,,,0.00,WeatherCatV1.22B15,2013-12-13 07:07:00,
2013-12-13 01:12:00,34.4,28.0,30.24,North,0,0.0,6.0,77,0.00,,,0.00,WeatherCatV1.22B15,2013-12-13 07:12:00,
2013-12-13 01:17:00,34.6,27.8,30.23,North,0,0.0,0.0,76,0.00,,,0.00,WeatherCatV1.22B15,2013-12-13 07:17:00,
2013-12-13 01:22:00,34.7,27.9,30.23,North,0,0.0,0.0,76,0.00,,,0.00,WeatherCatV1.22B15,2013-12-13 07:22:00,
2013-12-13 01:27:00,34.8,28.0,30.22,North,0,2.0,4.0,76,0.00,,,0.00,WeatherCatV1.22B15,2013-12-13 07:27:00,
2013-12-13 01:32:00,35.0,27.9,30.22,North,0,2.0,10.0,75,0.00,,,0.00,WeatherCatV1.22B15,2013-12-13 07:32:00,
2013-12-13 01:37:00,35.0,27.9,30.22,South,183,4.0,8.0,75,0.00,,,0.00,WeatherCatV1.22B15,2013-12-13 07:37:00,
2013-12-13 01:42:00,35.2,28.1,30.21,South,191,6.0,16.0,75,0.00,,,0.00,WeatherCatV1.22B15,2013-12-13 07:42:00,
2013-12-13 01:47:00,35.3,27.9,30.21,SSW,192,6.0,8.0,74,0.00,,,0.00,WeatherCatV1.22B15,2013-12-13 07:47:00,
2013-12-13 01:52:00,35.5,28.0,30.21,South,182,6.0,8.0,74,0.00,,,0.00,WeatherCatV1.22B15,2013-12-13 07:52:00,
2013-12-13 01:57:00,35.6,27.8,30.21,North,0,8.0,8.0,73,0.00,,,0.00,WeatherCatV1.22B15,2013-12-13 07:57:00,
2013-12-13 02:02:00,35.7,27.9,30.21,South,184,0.0,6.0,73,0.00,,,0.00,WeatherCatV1.22B15,2013-12-13 08:02:00,
2013-12-13 02:07:00,35.8,28.0,30.21,North,0,6.0,6.0,73,0.00,,,0.00,WeatherCatV1.22B15,2013-12-13 08:07:00,
2013-12-13 02:12:00,35.8,28.0,30.21,North,0,0.0,8.0,73,0.00,,,0.00,WeatherCatV1.22B15,2013-12-13 08:12:00,
2013-12-13 02:17:00,35.9,28.4,30.20,North,0,0.0,8.0,74,0.00,,,0.00,WeatherCatV1.22B15,2013-12-13 08:17:00,
2013-12-13 02:22:00,35.9,28.4,30.21,South,182,6.0,6.0,74,0.00,,,0.00,WeatherCatV1.22B15,2013-12-13 08:22:00,
2013-12-13 02:27:00,35.9,28.4,30.21,South,173,0.0,6.0,74,0.00,,,0.00,WeatherCatV1.22B15,2013-12-13 08:27:00,
2013-12-13 02:32:00,35.9,28.4,30.20,South,184,0.0,8.0,74,0.00,,,0.00,WeatherCatV1.22B15,2013-12-13 08:32:00,
2013-12-13 02:37:00,36.0,28.5,30.20,South,171,0.0,10.0,74,0.00,,,0.00,WeatherCatV1.22B15,2013-12-13 08:37:00,
2013-12-13 02:42:00,36.1,28.6,30.20,South,172,2.0,6.0,74,0.00,,,0.00,WeatherCatV1.22B15,2013-12-13 08:42:00,
2013-12-13 02:47:00,36.1,28.6,30.20,South,183,0.0,10.0,74,0.00,,,0.00,WeatherCatV1.22B15,2013-12-13 08:47:00,
2013-12-13 02:52:00,36.1,28.6,30.19,North,0,0.0,12.0,74,0.00,,,0.00,WeatherCatV1.22B15,2013-12-13 08:52:00,
2013-12-13 02:57:00,36.2,28.4,30.19,South,188,0.0,6.0,73,0.00,,,0.00,WeatherCatV1.22B15,2013-12-13 08:57:00,
2013-12-13 03:02:00,36.2,28.4,30.19,South,185,2.0,10.0,73,0.00,,,0.00,WeatherCatV1.22B15,2013-12-13 09:02:00,
2013-12-13 03:07:00,36.3,28.5,30.20,North,0,4.0,8.0,73,0.00,,,0.00,WeatherCatV1.22B15,2013-12-13 09:07:00,
2013-12-13 03:12:00,36.3,28.5,30.20,North,0,0.0,10.0,73,0.00,,,0.00,WeatherCatV1.22B15,2013-12-13 09:12:00,
2013-12-13 03:17:00,36.3,28.5,30.19,SSW,198,0.0,10.0,73,0.00,,,0.00,WeatherCatV1.22B15,2013-12-13 09:17:00,
2013-12-13 03:22:00,36.3,28.5,30.18,South,169,8.0,12.0,73,0.00,,,0.00,WeatherCatV1.22B15,2013-12-13 09:22:00,
2013-12-13 03:27:00,36.2,28.7,30.18,North,0,0.0,8.0,74,0.00,,,0.00,WeatherCatV1.22B15,2013-12-13 09:27:00,
2013-12-13 03:32:00,36.1,28.6,30.18,North,0,2.0,10.0,74,0.00,,,0.00,WeatherCatV1.22B15,2013-12-13 09:32:00,
2013-12-13 03:37:00,36.1,28.6,30.18,South,191,2.0,6.0,74,0.00,,,0.00,WeatherCatV1.22B15,2013-12-13 09:37:00,
2013-12-13 03:42:00,36.1,28.6,30.18,North,0,4.0,8.0,74,0.00,,,0.00,WeatherCatV1.22B15,2013-12-13 09:42:00,
2013-12-13 03:47:00,36.2,28.7,30.18,SSW,205,4.0,16.0,74,0.00,,,0.00,WeatherCatV1.22B15,2013-12-13 09:47:00,
2013-12-13 03:52:00,36.3,28.5,30.18,North,0,4.0,10.0,73,0.00,,,0.00,WeatherCatV1.22B15,2013-12-13 09:52:00,
2013-12-13 03:57:00,36.4,28.6,30.18,South,175,6.0,8.0,73,0.00,,,0.00,WeatherCatV1.22B15,2013-12-13 09:57:00,
2013-12-13 04:02:00,36.5,28.7,30.18,North,0,0.0,6.0,73,0.00,,,0.00,WeatherCatV1.22B15,2013-12-13 10:02:00,
2013-12-13 04:07:00,36.6,28.8,30.18,South,177,2.0,6.0,73,0.00,,,0.00,WeatherCatV1.22B15,2013-12-13 10:07:00,
2013-12-13 04:12:00,36.6,28.4,30.18,North,0,10.0,10.0,72,0.00,,,0.00,WeatherCatV1.22B15,2013-12-13 10:12:00,
2013-12-13 04:17:00,36.7,28.5,30.17,North,0,2.0,10.0,72,0.00,,,0.00,WeatherCatV1.22B15,2013-12-13 10:17:00,
2013-12-13 04:22:00,36.7,28.5,30.17,South,177,4.0,10.0,72,0.00,,,0.00,WeatherCatV1.22B15,2013-12-13 10:22:00,
2013-12-13 04:27:00,36.7,28.5,30.17,North,0,0.0,4.0,72,0.00,,,0.00,WeatherCatV1.22B15,2013-12-13 10:27:00,
2013-12-13 04:32:00,36.6,28.8,30.17,North,0,4.0,4.0,73,0.00,,,0.00,WeatherCatV1.22B15,2013-12-13 10:32:00,
2013-12-13 04:37:00,36.6,28.8,30.17,South,176,0.0,0.0,73,0.00,,,0.00,WeatherCatV1.22B15,2013-12-13 10:37:00,
2013-12-13 04:42:00,36.5,28.7,30.16,South,177,0.0,0.0,73,0.00,,,0.00,WeatherCatV1.22B15,2013-12-13 10:42:00,
2013-12-13 04:47:00,36.5,29.0,30.16,South,179,0.0,12.0,74,0.00,,,0.00,WeatherCatV1.22B15,2013-12-13 10:47:00,
2013-12-13 04:52:00,36.5,28.7,30.16,South,180,2.0,6.0,73,0.00,,,0.00,WeatherCatV1.22B15,2013-12-13 10:52:00,
2013-12-13 04:57:00,36.5,29.0,30.16,North,0,0.0,4.0,74,0.00,,,0.00,WeatherCatV1.22B15,2013-12-13 10:57:00,
2013-12-13 05:02:00,36.4,28.9,30.15,South,177,0.0,8.0,74,0.00,,,0.00,WeatherCatV1.22B15,2013-12-13 11:02:00,
2013-12-13 05:07:00,36.4,28.9,30.15,South,184,4.0,8.0,74,0.00,,,0.00,WeatherCatV1.22B15,2013-12-13 11:07:00,
2013-12-13 05:12:00,36.3,28.8,30.14,South,186,0.0,10.0,74,0.00,,,0.00,WeatherCatV1.22B15,2013-12-13 11:12:00,
2013-12-13 05:17:00,36.3,28.8,30.14,South,173,6.0,8.0,74,0.00,,,0.00,WeatherCatV1.22B15,2013-12-13 11:17:00,
2013-12-13 05:22:00,36.3,28.8,30.14,South,188,0.0,10.0,74,0.00,,,0.00,WeatherCatV1.22B15,2013-12-13 11:22:00,
2013-12-13 05:27:00,36.3,28.8,30.14,North,0,4.0,10.0,74,0.00,,,0.00,WeatherCatV1.22B15,2013-12-13 11:27:00,
2013-12-13 05:32:00,36.3,28.8,30.13,SSW,205,6.0,14.0,74,0.00,,,0.00,WeatherCatV1.22B15,2013-12-13 11:32:00,
2013-12-13 05:37:00,36.3,28.8,30.13,SSW,198,0.0,12.0,74,0.00,,,0.00,WeatherCatV1.22B15,2013-12-13 11:37:00,
2013-12-13 05:42:00,36.3,28.8,30.12,North,0,8.0,12.0,74,0.00,,,0.00,WeatherCatV1.22B15,2013-12-13 11:42:00,
2013-12-13 05:47:00,36.2,28.7,30.12,South,184,2.0,12.0,74,0.00,,,0.00,WeatherCatV1.22B15,2013-12-13 11:47:00,
2013-12-13 05:52:00,36.2,28.7,30.12,South,188,6.0,10.0,74,0.00,,,0.00,WeatherCatV1.22B15,2013-12-13 11:52:00,
2013-12-13 05:57:00,36.2,29.0,30.12,South,182,8.0,10.0,75,0.00,,,0.00,WeatherCatV1.22B15,2013-12-13 11:57:00,
2013-12-13 06:02:00,36.2,29.0,30.12,North,0,8.0,16.0,75,0.00,,,0.00,WeatherCatV1.22B15,2013-12-13 12:02:00,
2013-12-13 06:07:00,36.2,29.0,30.12,North,0,10.0,14.0,75,0.00,,,0.00,WeatherCatV1.22B15,2013-12-13 12:07:00,
2013-12-13 06:12:00,36.2,29.4,30.12,SSW,196,2.0,10.0,76,0.00,,,0.00,WeatherCatV1.22B15,2013-12-13 12:12:00,
2013-12-13 06:17:00,36.1,29.3,30.12,North,0,6.0,16.0,76,0.00,,,0.00,WeatherCatV1.22B15,2013-12-13 12:17:00,
2013-12-13 06:22:00,36.1,29.6,30.11,South,191,6.0,12.0,77,0.00,,,0.00,WeatherCatV1.22B15,2013-12-13 12:22:00,
2013-12-13 06:24:00,36.1,29.6,30.11,North,0,2.0,12.0,77,0.00,,,0.00,WeatherCatV1.22B15,2013-12-13 12:24:00,
2013-12-13 06:29:00,36.0,29.5,30.11,South,182,2.0,6.0,77,0.00,,,0.00,WeatherCatV1.22B15,2013-12-13 12:29:00,
2013-12-13 06:34:00,35.9,29.7,30.11,SSW,207,0.0,12.0,78,0.00,,,0.00,WeatherCatV1.22B15,2013-12-13 12:34:00,
2013-12-13 06:39:00,35.8,29.6,30.10,North,0,0.0,12.0,78,0.00,,,0.01,WeatherCatV1.22B15,2013-12-13 12:39:00,
2013-12-13 06:44:00,35.7,29.8,30.10,SSW,198,0.0,10.0,79,0.00,,,0.01,WeatherCatV1.22B15,2013-12-13 12:44:00,
2013-12-13 06:49:00,35.6,29.7,30.10,South,183,4.0,8.0,79,0.00,,,0.01,WeatherCatV1.22B15,2013-12-13 12:49:00,
2013-12-13 06:54:00,35.5,30.0,30.10,South,176,2.0,10.0,80,0.00,,,0.01,WeatherCatV1.22B15,2013-12-13 12:54:00,
2013-12-13 06:59:00,35.4,29.9,30.10,South,191,2.0,10.0,80,0.00,,,0.01,WeatherCatV1.22B15,2013-12-13 12:59:00,
2013-12-13 07:04:00,35.3,30.1,30.09,South,176,0.0,8.0,81,0.00,,,0.01,WeatherCatV1.22B15,2013-12-13 13:04:00,
2013-12-13 07:09:00,35.3,30.1,30.09,North,0,6.0,8.0,81,0.00,,,0.01,WeatherCatV1.22B15,2013-12-13 13:09:00,
2013-12-13 07:14:00,35.2,30.0,30.09,South,181,6.0,10.0,81,0.00,,,0.01,WeatherCatV1.22B15,2013-12-13 13:14:00,
2013-12-13 07:19:00,35.2,30.3,30.09,North,0,2.0,10.0,82,0.00,,,0.01,WeatherCatV1.22B15,2013-12-13 13:19:00,
2013-12-13 07:24:00,35.2,30.3,30.09,North,0,4.0,12.0,82,0.00,,,0.01,WeatherCatV1.22B15,2013-12-13 13:24:00,
2013-12-13 07:29:00,35.1,30.5,30.08,North,0,8.0,12.0,83,0.00,,,0.01,WeatherCatV1.22B15,2013-12-13 13:29:00,
2013-12-13 07:34:00,35.1,30.5,30.08,SSW,194,10.0,12.0,83,0.00,,,0.01,WeatherCatV1.22B15,2013-12-13 13:34:00,
2013-12-13 07:39:00,35.1,30.8,30.08,North,0,8.0,10.0,84,0.00,,,0.01,WeatherCatV1.22B15,2013-12-13 13:39:00,
2013-12-13 07:44:00,35.0,30.7,30.07,North,0,10.0,14.0,84,0.00,,,0.02,WeatherCatV1.22B15,2013-12-13 13:44:00,
2013-12-13 07:49:00,35.0,30.7,30.08,South,176,2.0,8.0,84,0.00,,,0.02,WeatherCatV1.22B15,2013-12-13 13:49:00,
2013-12-13 07:54:00,35.0,31.0,30.09,North,0,2.0,8.0,85,0.00,,,0.02,WeatherCatV1.22B15,2013-12-13 13:54:00,
2013-12-13 07:59:00,35.0,31.0,30.08,North,0,6.0,12.0,85,0.00,,,0.02,WeatherCatV1.22B15,2013-12-13 13:59:00,
2013-12-13 08:04:00,35.1,31.0,30.08,North,0,4.0,8.0,85,0.00,,,0.02,WeatherCatV1.22B15,2013-12-13 14:04:00,
2013-12-13 08:09:00,35.1,31.0,30.07,North,0,4.0,8.0,85,0.00,,,0.02,WeatherCatV1.22B15,2013-12-13 14:09:00,
2013-12-13 08:14:00,35.2,31.1,30.07,North,0,6.0,12.0,85,0.00,,,0.02,WeatherCatV1.22B15,2013-12-13 14:14:00,
2013-12-13 08:19:00,35.4,31.6,30.07,North,0,6.0,12.0,86,0.00,,,0.02,WeatherCatV1.22B15,2013-12-13 14:19:00,
2013-12-13 08:24:00,35.5,31.7,30.07,North,0,0.0,6.0,86,0.00,,,0.02,WeatherCatV1.22B15,2013-12-13 14:24:00,
2013-12-13 08:29:00,35.7,31.9,30.07,North,0,4.0,8.0,86,0.00,,,0.03,WeatherCatV1.22B15,2013-12-13 14:29:00,
2013-12-13 08:34:00,35.8,31.7,30.06,SSW,200,2.0,10.0,85,0.00,,,0.03,WeatherCatV1.22B15,2013-12-13 14:34:00,
2013-12-13 08:39:00,35.8,31.7,30.06,North,0,8.0,10.0,85,0.00,,,0.03,WeatherCatV1.22B15,2013-12-13 14:39:00,
2013-12-13 08:44:00,35.9,31.8,30.06,North,0,4.0,8.0,85,0.00,,,0.03,WeatherCatV1.22B15,2013-12-13 14:44:00,
2013-12-13 08:49:00,35.9,31.8,30.06,North,0,4.0,8.0,85,0.00,,,0.03,WeatherCatV1.22B15,2013-12-13 14:49:00,
2013-12-13 08:54:00,36.0,32.2,30.05,North,0,6.0,14.0,86,0.00,,,0.03,WeatherCatV1.22B15,2013-12-13 14:54:00,
2013-12-13 08:59:00,36.0,32.2,30.06,SSW,205,0.0,6.0,86,0.00,,,0.03,WeatherCatV1.22B15,2013-12-13 14:59:00,
2013-12-13 09:04:00,36.1,32.3,30.06,North,0,0.0,8.0,86,0.00,,,0.03,WeatherCatV1.22B15,2013-12-13 15:04:00,
2013-12-13 09:09:00,36.1,32.3,30.06,North,0,6.0,6.0,86,0.00,,,0.03,WeatherCatV1.22B15,2013-12-13 15:09:00,
2013-12-13 09:14:00,36.2,32.7,30.06,North,0,8.0,8.0,87,0.00,,,0.03,WeatherCatV1.22B15,2013-12-13 15:14:00,
2013-12-13 09:19:00,36.3,32.8,30.07,North,0,8.0,10.0,87,0.00,,,0.03,WeatherCatV1.22B15,2013-12-13 15:19:00,
2013-12-13 09:24:00,36.5,33.0,30.06,North,0,2.0,12.0,87,0.00,,,0.03,WeatherCatV1.22B15,2013-12-13 15:24:00,
2013-12-13 09:29:00,36.6,33.1,30.07,North,0,2.0,8.0,87,0.00,,,0.03,WeatherCatV1.22B15,2013-12-13 15:29:00,
2013-12-13 09:34:00,36.7,33.2,30.06,North,0,4.0,8.0,87,0.00,,,0.03,WeatherCatV1.22B15,2013-12-13 15:34:00,
2013-12-13 09:39:00,36.8,33.3,30.06,North,0,6.0,12.0,87,0.00,,,0.03,WeatherCatV1.22B15,2013-12-13 15:39:00,
2013-12-13 09:44:00,36.9,33.4,30.06,North,0,4.0,8.0,87,0.00,,,0.03,WeatherCatV1.22B15,2013-12-13 15:44:00,
2013-12-13 09:49:00,37.0,33.5,30.06,North,0,6.0,6.0,87,0.00,,,0.03,WeatherCatV1.22B15,2013-12-13 15:49:00,
2013-12-13 09:54:00,37.1,33.6,30.06,SW,223,4.0,16.0,87,0.00,,,0.03,WeatherCatV1.22B15,2013-12-13 15:54:00,
2013-12-13 09:59:00,37.2,33.7,30.05,North,0,6.0,14.0,87,0.00,,,0.03,WeatherCatV1.22B15,2013-12-13 15:59:00,
2013-12-13 10:04:00,37.4,33.9,30.05,North,0,2.0,12.0,87,0.00,,,0.03,WeatherCatV1.22B15,2013-12-13 16:04:00,
2013-12-13 10:09:00,37.5,34.0,30.05,North,0,6.0,8.0,87,0.00,,,0.03,WeatherCatV1.22B15,2013-12-13 16:09:00,
2013-12-13 10:14:00,37.5,34.0,30.04,North,0,6.0,20.0,87,0.00,,,0.03,WeatherCatV1.22B15,2013-12-13 16:14:00,
2013-12-13 10:19:00,37.7,34.2,30.05,North,0,6.0,10.0,87,0.00,,,0.03,WeatherCatV1.22B15,2013-12-13 16:19:00,
2013-12-13 10:24:00,37.7,34.2,30.05,North,0,6.0,10.0,87,0.00,,,0.03,WeatherCatV1.22B15,2013-12-13 16:24:00,
2013-12-13 10:29:00,37.8,34.0,30.04,North,0,6.0,16.0,86,0.00,,,0.03,WeatherCatV1.22B15,2013-12-13 16:29:00,
2013-12-13 10:34:00,37.8,34.0,30.04,North,0,20.0,20.0,86,0.00,,,0.03,WeatherCatV1.22B15,2013-12-13 16:34:00,
2013-12-13 10:39:00,37.9,34.1,30.04,North,0,14.0,16.0,86,0.00,,,0.03,WeatherCatV1.22B15,2013-12-13 16:39:00,
2013-12-13 10:44:00,37.9,34.1,30.03,SSE,157,10.0,20.0,86,0.00,,,0.03,WeatherCatV1.22B15,2013-12-13 16:44:00,
2013-12-13 10:49:00,37.8,34.0,30.03,South,183,8.0,18.0,86,0.00,,,0.03,WeatherCatV1.22B15,2013-12-13 16:49:00,
2013-12-13 10:54:00,37.8,34.0,30.02,North,0,2.0,24.0,86,0.00,,,0.03,WeatherCatV1.22B15,2013-12-13 16:54:00,
2013-12-13 10:59:00,37.8,34.0,30.02,North,0,6.0,12.0,86,0.00,,,0.03,WeatherCatV1.22B15,2013-12-13 16:59:00,
2013-12-13 11:04:00,37.8,34.0,30.02,North,0,8.0,16.0,86,0.00,,,0.03,WeatherCatV1.22B15,2013-12-13 17:04:00,
2013-12-13 11:09:00,37.9,34.4,30.02,North,0,8.0,10.0,87,0.00,,,0.03,WeatherCatV1.22B15,2013-12-13 17:09:00,
2013-12-13 11:14:00,37.9,34.4,30.01,North,0,4.0,14.0,87,0.00,,,0.03,WeatherCatV1.22B15,2013-12-13 17:14:00,
2013-12-13 11:19:00,37.8,34.3,30.01,North,0,10.0,10.0,87,0.00,,,0.03,WeatherCatV1.22B15,2013-12-13 17:19:00,
2013-12-13 11:24:00,37.9,34.4,30.00,North,0,12.0,16.0,87,0.00,,,0.03,WeatherCatV1.22B15,2013-12-13 17:24:00,
2013-12-13 11:29:00,37.9,34.4,30.00,North,0,12.0,16.0,87,0.00,,,0.03,WeatherCatV1.22B15,2013-12-13 17:29:00,
2013-12-13 11:34:00,37.9,34.4,29.99,North,0,8.0,16.0,87,0.00,,,0.03,WeatherCatV1.22B15,2013-12-13 17:34:00,
2013-12-13 11:39:00,38.0,34.5,29.99,North,0,26.0,26.0,87,0.00,,,0.03,WeatherCatV1.22B15,2013-12-13 17:39:00,
2013-12-13 11:44:00,38.1,34.6,29.98,SW,214,6.0,12.0,87,0.00,,,0.03,WeatherCatV1.22B15,2013-12-13 17:44:00,
2013-12-13 11:49:00,38.2,34.7,29.98,North,0,6.0,10.0,87,0.00,,,0.03,WeatherCatV1.22B15,2013-12-13 17:49:00,
2013-12-13 11:54:00,38.2,34.7,29.98,North,0,8.0,14.0,87,0.00,,,0.03,WeatherCatV1.22B15,2013-12-13 17:54:00,
2013-12-13 11:59:00,38.3,34.8,29.98,South,187,6.0,16.0,87,0.00,,,0.03,WeatherCatV1.22B15,2013-12-13 17:59:00,
2013-12-13 12:04:00,38.3,34.8,29.98,South,187,6.0,20.0,87,0.00,,,0.03,WeatherCatV1.22B15,2013-12-13 18:04:00,
2013-12-13 12:09:00,38.4,34.9,29.97,North,0,8.0,20.0,87,0.00,,,0.03,WeatherCatV1.22B15,2013-12-13 18:09:00,
2013-12-13 12:14:00,38.4,34.9,29.97,North,0,12.0,18.0,87,0.00,,,0.03,WeatherCatV1.22B15,2013-12-13 18:14:00,
2013-12-13 12:19:00,38.6,35.1,29.96,ESE,111,6.0,12.0,87,0.00,,,0.03,WeatherCatV1.22B15,2013-12-13 18:19:00,
2013-12-13 12:24:00,38.6,35.1,29.96,North,0,6.0,10.0,87,0.00,,,0.03,WeatherCatV1.22B15,2013-12-13 18:24:00,
2013-12-13 12:29:00,38.7,35.2,29.95,North,0,8.0,14.0,87,0.00,,,0.03,WeatherCatV1.22B15,2013-12-13 18:29:00,
2013-12-13 12:34:00,38.8,35.3,29.95,North,0,8.0,14.0,87,0.00,,,0.03,WeatherCatV1.22B15,2013-12-13 18:34:00,
2013-12-13 12:39:00,38.8,35.3,29.95,North,0,8.0,12.0,87,0.00,,,0.03,WeatherCatV1.22B15,2013-12-13 18:39:00,
2013-12-13 12:44:00,38.9,35.4,29.94,North,0,4.0,12.0,87,0.00,,,0.03,WeatherCatV1.22B15,2013-12-13 18:44:00,
2013-12-13 12:49:00,39.1,35.3,29.93,South,191,8.0,14.0,86,0.00,,,0.03,WeatherCatV1.22B15,2013-12-13 18:49:00,
2013-12-13 12:54:00,39.2,35.4,29.93,SW,223,4.0,14.0,86,0.00,,,0.03,WeatherCatV1.22B15,2013-12-13 18:54:00,
2013-12-13 12:59:00,39.4,35.6,29.92,North,0,8.0,14.0,86,0.00,,,0.03,WeatherCatV1.22B15,2013-12-13 18:59:00,
2013-12-13 13:04:00,39.4,35.6,29.92,North,0,6.0,22.0,86,0.00,,,0.03,WeatherCatV1.22B15,2013-12-13 19:04:00,
2013-12-13 13:09:00,39.5,35.4,29.91,North,0,10.0,16.0,85,0.00,,,0.03,WeatherCatV1.22B15,2013-12-13 19:09:00,
2013-12-13 13:14:00,39.7,35.6,29.91,North,0,16.0,18.0,85,0.00,,,0.03,WeatherCatV1.22B15,2013-12-13 19:14:00,
2013-12-13 13:19:00,39.9,35.8,29.90,North,0,10.0,18.0,85,0.00,,,0.03,WeatherCatV1.22B15,2013-12-13 19:19:00,
2013-12-13 13:24:00,40.2,36.1,29.90,North,0,12.0,12.0,85,0.00,,,0.03,WeatherCatV1.22B15,2013-12-13 19:24:00,
2013-12-13 13:29:00,40.5,36.3,29.90,North,0,14.0,20.0,85,0.00,,,0.03,WeatherCatV1.22B15,2013-12-13 19:29:00,
2013-12-13 13:34:00,40.9,36.4,29.89,North,0,18.0,18.0,84,0.00,,,0.03,WeatherCatV1.22B15,2013-12-13 19:34:00,
2013-12-13 13:39:00,41.3,36.8,29.89,North,0,10.0,30.0,84,0.00,,,0.03,WeatherCatV1.22B15,2013-12-13 19:39:00,
2013-12-13 13:44:00,41.6,36.8,29.88,North,0,18.0,32.0,83,0.00,,,0.03,WeatherCatV1.22B15,2013-12-13 19:44:00,
2013-12-13 13:49:00,41.6,36.2,29.88,North,0,12.0,26.0,81,0.00,,,0.03,WeatherCatV1.22B15,2013-12-13 19:49:00,
2013-12-13 13:54:00,41.5,36.1,29.88,North,0,14.0,20.0,81,0.00,,,0.03,WeatherCatV1.22B15,2013-12-13 19:54:00,
2013-12-13 13:59:00,41.4,36.0,29.88,North,0,8.0,16.0,81,0.00,,,0.03,WeatherCatV1.22B15,2013-12-13 19:59:00,
2013-12-13 14:04:00,41.2,35.5,29.87,North,0,6.0,22.0,80,0.00,,,0.03,WeatherCatV1.22B15,2013-12-13 20:04:00,
2013-12-13 14:09:00,41.0,35.6,29.87,North,0,12.0,20.0,81,0.00,,,0.03,WeatherCatV1.22B15,2013-12-13 20:09:00,
2013-12-13 14:14:00,40.9,35.5,29.87,North,0,6.0,12.0,81,0.00,,,0.03,WeatherCatV1.22B15,2013-12-13 20:14:00,
2013-12-13 14:19:00,40.7,35.6,29.87,South,176,6.0,12.0,82,0.00,,,0.03,WeatherCatV1.22B15,2013-12-13 20:19:00,
2013-12-13 14:24:00,40.6,35.5,29.87,North,0,14.0,20.0,82,0.00,,,0.03,WeatherCatV1.22B15,2013-12-13 20:24:00,
2013-12-13 14:29:00,40.5,35.5,29.86,North,0,10.0,24.0,82,0.00,,,0.03,WeatherCatV1.22B15,2013-12-13 20:29:00,
2013-12-13 14:34:00,40.4,35.7,29.86,North,0,6.0,16.0,83,0.00,,,0.03,WeatherCatV1.22B15,2013-12-13 20:34:00,
2013-12-13 14:39:00,40.4,35.7,29.86,North,0,12.0,18.0,83,0.00,,,0.03,WeatherCatV1.22B15,2013-12-13 20:39:00,
2013-12-13 14:44:00,40.3,35.5,29.86,North,0,4.0,10.0,83,0.00,,,0.03,WeatherCatV1.22B15,2013-12-13 20:44:00,
2013-12-13 14:49:00,40.4,35.7,29.86,SSW,204,8.0,36.0,83,0.00,,,0.03,WeatherCatV1.22B15,2013-12-13 20:49:00,
2013-12-13 14:54:00,40.3,35.5,29.86,North,0,16.0,30.0,83,0.00,,,0.03,WeatherCatV1.22B15,2013-12-13 20:54:00,
2013-12-13 14:59:00,40.3,35.5,29.86,North,0,10.0,12.0,83,0.00,,,0.03,WeatherCatV1.22B15,2013-12-13 20:59:00,
2013-12-13 15:04:00,40.2,35.5,29.85,North,0,8.0,20.0,83,0.00,,,0.03,WeatherCatV1.22B15,2013-12-13 21:04:00,
2013-12-13 15:09:00,40.1,35.4,29.85,North,0,4.0,8.0,83,0.00,,,0.03,WeatherCatV1.22B15,2013-12-13 21:09:00,
2013-12-13 15:14:00,40.1,35.4,29.85,North,0,12.0,12.0,83,0.00,,,0.03,WeatherCatV1.22B15,2013-12-13 21:14:00,
2013-12-13 15:19:00,39.9,35.2,29.85,North,0,14.0,18.0,83,0.00,,,0.03,WeatherCatV1.22B15,2013-12-13 21:19:00,
2013-12-13 15:24:00,39.7,35.0,29.85,North,0,10.0,16.0,83,0.00,,,0.03,WeatherCatV1.22B15,2013-12-13 21:24:00,
2013-12-13 15:29:00,39.6,34.9,29.85,North,0,8.0,12.0,83,0.00,,,0.03,WeatherCatV1.22B15,2013-12-13 21:29:00,
2013-12-13 15:34:00,39.5,34.8,29.85,North,0,20.0,20.0,83,0.00,,,0.03,WeatherCatV1.22B15,2013-12-13 21:34:00,
2013-12-13 15:39:00,39.4,34.7,29.85,North,0,14.0,28.0,83,0.00,,,0.03,WeatherCatV1.22B15,2013-12-13 21:39:00,
2013-12-13 15:44:00,39.4,34.7,29.84,North,0,6.0,14.0,83,0.00,,,0.03,WeatherCatV1.22B15,2013-12-13 21:44:00,
2013-12-13 15:49:00,39.4,34.7,29.84,North,0,12.0,16.0,83,0.00,,,0.03,WeatherCatV1.22B15,2013-12-13 21:49:00,
2013-12-13 15:54:00,39.4,34.7,29.84,North,0,10.0,20.0,83,0.00,,,0.03,WeatherCatV1.22B15,2013-12-13 21:54:00,
2013-12-13 15:59:00,39.3,34.6,29.84,North,0,10.0,22.0,83,0.00,,,0.03,WeatherCatV1.22B15,2013-12-13 21:59:00,
2013-12-13 16:04:00,39.4,34.7,29.84,North,0,10.0,16.0,83,0.00,,,0.03,WeatherCatV1.22B15,2013-12-13 22:04:00,
2013-12-13 16:09:00,39.3,34.6,29.84,South,169,12.0,12.0,83,0.00,,,0.03,WeatherCatV1.22B15,2013-12-13 22:09:00,
2013-12-13 16:14:00,39.4,34.7,29.84,North,0,10.0,18.0,83,0.00,,,0.03,WeatherCatV1.22B15,2013-12-13 22:14:00,
2013-12-13 16:19:00,39.3,34.6,29.84,North,0,10.0,16.0,83,0.00,,,0.03,WeatherCatV1.22B15,2013-12-13 22:19:00,
2013-12-13 16:24:00,39.3,34.6,29.84,North,0,6.0,12.0,83,0.00,,,0.03,WeatherCatV1.22B15,2013-12-13 22:24:00,
2013-12-13 16:29:00,39.3,34.9,29.84,SSW,194,0.0,6.0,84,0.00,,,0.03,WeatherCatV1.22B15,2013-12-13 22:29:00,
2013-12-13 16:34:00,39.4,35.0,29.84,North,0,12.0,18.0,84,0.00,,,0.03,WeatherCatV1.22B15,2013-12-13 22:34:00,
2013-12-13 16:39:00,39.4,35.0,29.84,North,0,2.0,4.0,84,0.00,,,0.03,WeatherCatV1.22B15,2013-12-13 22:39:00,
2013-12-13 16:44:00,39.4,35.0,29.84,North,0,6.0,14.0,84,0.00,,,0.03,WeatherCatV1.22B15,2013-12-13 22:44:00,
2013-12-13 16:49:00,39.4,35.0,29.84,North,0,6.0,8.0,84,0.00,,,0.03,WeatherCatV1.22B15,2013-12-13 22:49:00,
2013-12-13 16:54:00,39.3,35.2,29.84,North,0,4.0,10.0,85,0.00,,,0.03,WeatherCatV1.22B15,2013-12-13 22:54:00,
2013-12-13 16:59:00,39.1,35.0,29.85,North,0,0.0,4.0,85,0.00,,,0.03,WeatherCatV1.22B15,2013-12-13 22:59:00,
2013-12-13 17:04:00,39.0,34.9,29.84,North,0,0.0,6.0,85,0.00,,,0.03,WeatherCatV1.22B15,2013-12-13 23:04:00,
2013-12-13 17:09:00,38.9,34.8,29.84,South,183,4.0,8.0,85,0.00,,,0.03,WeatherCatV1.22B15,2013-12-13 23:09:00,
2013-12-13 17:14:00,38.8,34.7,29.84,North,0,0.0,8.0,85,0.00,,,0.03,WeatherCatV1.22B15,2013-12-13 23:14:00,
2013-12-13 17:19:00,38.7,34.9,29.84,South,182,0.0,6.0,86,0.00,,,0.03,WeatherCatV1.22B15,2013-12-13 23:19:00,
2013-12-13 17:20:00,38.7,34.9,29.85,WNW,288,1.8,4.0,86,0.00,,,0.00,WeatherCatV1.22B15,2013-12-13 23:20:00,
2013-12-13 17:25:00,38.7,34.9,29.84,North,0,2.0,8.0,86,0.00,,,0.00,WeatherCatV1.22B15,2013-12-13 23:25:00,
2013-12-13 17:30:00,38.7,34.9,29.85,North,0,2.0,8.0,86,0.00,,,0.00,WeatherCatV1.22B15,2013-12-13 23:30:00,
2013-12-13 17:35:00,38.6,34.8,29.84,SSW,202,2.0,10.0,86,0.00,,,0.00,WeatherCatV1.22B15,2013-12-13 23:35:00,
2013-12-13 17:40:00,38.6,34.8,29.84,North,0,0.0,2.0,86,0.00,,,0.00,WeatherCatV1.22B15,2013-12-13 23:40:00,
2013-12-13 17:45:00,38.6,35.1,29.84,South,180,0.0,4.0,87,0.00,,,0.00,WeatherCatV1.22B15,2013-12-13 23:45:00,
2013-12-13 17:50:00,38.6,35.1,29.84,North,0,2.0,8.0,87,0.00,,,0.00,WeatherCatV1.22B15,2013-12-13 23:50:00,
2013-12-13 17:55:00,38.5,35.0,29.84,North,0,2.0,10.0,87,0.00,,,0.00,WeatherCatV1.22B15,2013-12-13 23:55:00,
2013-12-13 18:00:00,38.6,35.1,29.84,North,0,0.0,6.0,87,0.00,,,0.00,WeatherCatV1.22B15,2013-12-14 00:00:00,
2013-12-13 18:05:00,38.6,35.1,29.85,North,0,0.0,6.0,87,0.00,,,0.00,WeatherCatV1.22B15,2013-12-14 00:05:00,
2013-12-13 18:10:00,38.6,35.4,29.85,South,180,0.0,4.0,88,0.00,,,0.00,WeatherCatV1.22B15,2013-12-14 00:10:00,
2013-12-13 18:15:00,38.6,35.4,29.86,South,180,0.0,6.0,88,0.00,,,0.00,WeatherCatV1.22B15,2013-12-14 00:15:00,
2013-12-13 18:20:00,38.7,35.5,29.85,South,180,0.0,4.0,88,0.00,,,0.00,WeatherCatV1.22B15,2013-12-14 00:20:00,
2013-12-13 18:25:00,38.9,35.7,29.85,North,0,2.0,8.0,88,0.00,,,0.00,WeatherCatV1.22B15,2013-12-14 00:25:00,
2013-12-13 18:30:00,39.1,36.1,29.85,North,0,0.0,0.0,89,0.00,,,0.00,WeatherCatV1.22B15,2013-12-14 00:30:00,
2013-12-13 18:35:00,39.2,36.2,29.86,North,0,0.0,0.0,89,0.00,,,0.00,WeatherCatV1.22B15,2013-12-14 00:35:00,
2013-12-13 18:40:00,39.2,36.2,29.86,North,0,0.0,0.0,89,0.00,,,0.00,WeatherCatV1.22B15,2013-12-14 00:40:00,
2013-12-13 18:45:00,39.3,36.3,29.86,North,0,0.0,0.0,89,0.00,,,0.00,WeatherCatV1.22B15,2013-12-14 00:45:00,
2013-12-13 18:50:00,39.3,36.3,29.85,North,0,0.0,0.0,89,0.00,,,0.00,WeatherCatV1.22B15,2013-12-14 00:50:00,
2013-12-13 18:55:00,39.3,36.3,29.86,North,0,0.0,0.0,89,0.00,,,0.00,WeatherCatV1.22B15,2013-12-14 00:55:00,
2013-12-13 19:00:00,39.3,36.3,29.86,North,0,0.0,0.0,89,0.00,,,0.00,WeatherCatV1.22B15,2013-12-14 01:00:00,
2013-12-13 19:05:00,39.3,36.3,29.87,North,0,0.0,0.0,89,0.00,,,0.00,WeatherCatV1.22B15,2013-12-14 01:05:00,
2013-12-13 19:10:00,39.3,36.6,29.87,North,0,0.0,0.0,90,0.00,,,0.00,WeatherCatV1.22B15,2013-12-14 01:10:00,
2013-12-13 19:15:00,39.2,36.5,29.87,North,0,0.0,0.0,90,0.00,,,0.00,WeatherCatV1.22B15,2013-12-14 01:15:00,
2013-12-13 19:20:00,39.2,36.5,29.88,North,0,0.0,0.0,90,0.00,,,0.00,WeatherCatV1.22B15,2013-12-14 01:20:00,
2013-12-13 19:25:00,39.2,36.5,29.88,North,0,0.0,0.0,90,0.00,,,0.00,WeatherCatV1.22B15,2013-12-14 01:25:00,
2013-12-13 19:30:00,39.2,36.5,29.88,North,0,0.0,0.0,90,0.00,,,0.00,WeatherCatV1.22B15,2013-12-14 01:30:00,
2013-12-13 19:35:00,39.2,36.5,29.88,North,0,0.0,0.0,90,0.00,,,0.00,WeatherCatV1.22B15,2013-12-14 01:35:00,
2013-12-13 19:40:00,39.3,36.6,29.88,North,0,0.0,0.0,90,0.00,,,0.00,WeatherCatV1.22B15,2013-12-14 01:40:00,
2013-12-13 19:45:00,39.2,36.5,29.87,North,0,0.0,0.0,90,0.00,,,0.00,WeatherCatV1.22B15,2013-12-14 01:45:00,
2013-12-13 19:50:00,39.2,36.8,29.87,North,0,0.0,0.0,91,0.00,,,0.00,WeatherCatV1.22B15,2013-12-14 01:50:00,
2013-12-13 19:55:00,39.2,36.8,29.87,North,0,0.0,0.0,91,0.00,,,0.00,WeatherCatV1.22B15,2013-12-14 01:55:00,
2013-12-13 20:00:00,39.2,36.8,29.87,North,0,0.0,0.0,91,0.00,,,0.00,WeatherCatV1.22B15,2013-12-14 02:00:00,
2013-12-13 20:05:00,39.3,36.9,29.87,North,0,0.0,0.0,91,0.00,,,0.00,WeatherCatV1.22B15,2013-12-14 02:05:00,
2013-12-13 20:10:00,39.3,36.9,29.87,North,0,0.0,0.0,91,0.00,,,0.00,WeatherCatV1.22B15,2013-12-14 02:10:00,
2013-12-13 20:15:00,39.3,36.9,29.87,North,0,0.0,0.0,91,0.00,,,0.00,WeatherCatV1.22B15,2013-12-14 02:15:00,
2013-12-13 20:20:00,39.2,36.8,29.88,North,0,0.0,0.0,91,0.00,,,0.00,WeatherCatV1.22B15,2013-12-14 02:20:00,
2013-12-13 20:25:00,39.1,36.7,29.87,North,0,0.0,0.0,91,0.00,,,0.00,WeatherCatV1.22B15,2013-12-14 02:25:00,
2013-12-13 20:30:00,38.9,36.5,29.87,North,0,0.0,0.0,91,0.00,,,0.00,WeatherCatV1.22B15,2013-12-14 02:30:00,
2013-12-13 20:35:00,38.8,36.4,29.87,North,0,0.0,0.0,91,0.00,,,0.00,WeatherCatV1.22B15,2013-12-14 02:35:00,
2013-12-13 20:40:00,38.7,36.3,29.87,North,0,0.0,0.0,91,0.00,,,0.00,WeatherCatV1.22B15,2013-12-14 02:40:00,
2013-12-13 20:45:00,38.5,36.1,29.87,North,0,0.0,0.0,91,0.00,,,0.00,WeatherCatV1.22B15,2013-12-14 02:45:00,
2013-12-13 20:50:00,38.4,36.0,29.88,North,0,0.0,0.0,91,0.11,,,0.00,WeatherCatV1.22B15,2013-12-14 02:50:00,
2013-12-13 20:55:00,38.3,35.9,29.88,North,0,0.0,0.0,91,0.07,,,0.00,WeatherCatV1.22B15,2013-12-14 02:55:00,
2013-12-13 21:00:00,38.1,35.7,29.88,North,0,0.0,0.0,91,0.04,,,0.00,WeatherCatV1.22B15,2013-12-14 03:00:00,
2013-12-13 21:05:00,38.0,35.6,29.88,North,0,0.0,0.0,91,0.00,,,0.00,WeatherCatV1.22B15,2013-12-14 03:05:00,
2013-12-13 21:10:00,37.9,35.5,29.88,North,0,0.0,0.0,91,0.00,,,0.00,WeatherCatV1.22B15,2013-12-14 03:10:00,
2013-12-13 21:15:00,37.8,35.4,29.88,North,0,0.0,0.0,91,0.00,,,0.00,WeatherCatV1.22B15,2013-12-14 03:15:00,
2013-12-13 21:20:00,37.7,35.3,29.88,North,0,0.0,0.0,91,0.00,,,0.00,WeatherCatV1.22B15,2013-12-14 03:20:00,
2013-12-13 21:25:00,37.7,35.6,29.88,North,0,0.0,0.0,92,0.00,,,0.00,WeatherCatV1.22B15,2013-12-14 03:25:00,
2013-12-13 21:30:00,37.7,35.6,29.88,North,0,0.0,0.0,92,0.00,,,0.00,WeatherCatV1.22B15,2013-12-14 03:30:00,
2013-12-13 21:35:00,37.7,35.6,29.87,North,0,0.0,0.0,92,0.00,,,0.00,WeatherCatV1.22B15,2013-12-14 03:35:00,
2013-12-13 21:40:00,37.6,35.5,29.87,North,0,0.0,0.0,92,0.00,,,0.00,WeatherCatV1.22B15,2013-12-14 03:40:00,
2013-12-13 21:45:00,37.6,35.5,29.87,North,0,0.0,0.0,92,0.00,,,0.00,WeatherCatV1.22B15,2013-12-14 03:45:00,
2013-12-13 21:50:00,37.6,35.5,29.88,North,0,0.0,0.0,92,0.00,,,0.00,WeatherCatV1.22B15,2013-12-14 03:50:00,
2013-12-13 21:55:00,37.5,35.4,29.87,North,0,0.0,0.0,92,0.00,,,0.00,WeatherCatV1.22B15,2013-12-14 03:55:00,
2013-12-13 22:00:00,37.4,35.3,29.87,North,0,0.0,0.0,92,0.00,,,0.00,WeatherCatV1.22B15,2013-12-14 04:00:00,
2013-12-13 22:05:00,37.4,35.3,29.87,South,180,0.0,2.0,92,0.00,,,0.00,WeatherCatV1.22B15,2013-12-14 04:05:00,
2013-12-13 22:10:00,37.4,35.3,29.87,South,180,0.0,0.0,92,0.00,,,0.00,WeatherCatV1.22B15,2013-12-14 04:10:00,
2013-12-13 22:15:00,37.4,35.3,29.87,South,180,0.0,0.0,92,0.00,,,0.00,WeatherCatV1.22B15,2013-12-14 04:15:00,
2013-12-13 22:20:00,37.4,35.3,29.86,South,180,0.0,0.0,92,0.00,,,0.00,WeatherCatV1.22B15,2013-12-14 04:20:00,
2013-12-13 22:25:00,37.5,35.4,29.86,South,180,0.0,0.0,92,0.00,,,0.00,WeatherCatV1.22B15,2013-12-14 04:25:00,
2013-12-13 22:30:00,37.5,35.4,29.86,South,180,0.0,0.0,92,0.00,,,0.00,WeatherCatV1.22B15,2013-12-14 04:30:00,
2013-12-13 22:35:00,37.5,35.4,29.86,South,180,0.0,0.0,92,0.00,,,0.00,WeatherCatV1.22B15,2013-12-14 04:35:00,
2013-12-13 22:40:00,37.6,35.5,29.87,South,180,0.0,0.0,92,0.00,,,0.00,WeatherCatV1.22B15,2013-12-14 04:40:00,
2013-12-13 22:45:00,37.7,35.6,29.87,South,180,0.0,0.0,92,0.00,,,0.00,WeatherCatV1.22B15,2013-12-14 04:45:00,
2013-12-13 22:50:00,37.7,35.6,29.87,South,180,0.0,0.0,92,0.00,,,0.00,WeatherCatV1.22B15,2013-12-14 04:50:00,
2013-12-13 22:55:00,37.7,35.6,29.87,South,180,0.0,0.0,92,0.00,,,0.00,WeatherCatV1.22B15,2013-12-14 04:55:00,
2013-12-13 23:00:00,37.7,35.6,29.87,South,180,0.0,0.0,92,0.00,,,0.00,WeatherCatV1.22B15,2013-12-14 05:00:00,
2013-12-13 23:05:00,37.7,35.6,29.87,South,180,0.0,0.0,92,0.00,,,0.00,WeatherCatV1.22B15,2013-12-14 05:05:00,
2013-12-13 23:10:00,37.7,35.6,29.87,South,180,0.0,0.0,92,0.00,,,0.00,WeatherCatV1.22B15,2013-12-14 05:10:00,
2013-12-13 23:15:00,37.7,35.6,29.87,South,180,0.0,0.0,92,0.00,,,0.00,WeatherCatV1.22B15,2013-12-14 05:15:00,
2013-12-13 23:20:00,37.7,35.6,29.87,South,180,0.0,0.0,92,0.00,,,0.00,WeatherCatV1.22B15,2013-12-14 05:20:00,
2013-12-13 23:25:00,37.8,35.7,29.87,South,180,0.0,0.0,92,0.00,,,0.00,WeatherCatV1.22B15,2013-12-14 05:25:00,
2013-12-13 23:30:00,37.8,35.7,29.87,South,180,0.0,0.0,92,0.00,,,0.00,WeatherCatV1.22B15,2013-12-14 05:30:00,
2013-12-13 23:35:00,37.8,35.7,29.87,South,180,0.0,0.0,92,0.00,,,0.00,WeatherCatV1.22B15,2013-12-14 05:35:00,
2013-12-13 23:40:00,37.8,35.7,29.87,South,180,0.0,0.0,92,0.00,,,0.00,WeatherCatV1.22B15,2013-12-14 05:40:00,
2013-12-13 23:45:00,37.8,36.0,29.87,South,180,0.0,0.0,93,0.00,,,0.00,WeatherCatV1.22B15,2013-12-14 05:45:00,
2013-12-13 23:50:00,37.8,36.0,29.87,South,180,0.0,0.0,93,0.00,,,0.00,WeatherCatV1.22B15,2013-12-14 05:50:00,
2013-12-13 23:55:00,37.8,36.0,29.87,South,180,0.0,0.0,93,0.00,,,0.00,WeatherCatV1.22B15,2013-12-14 05:55:00,